User: anonymous   Login
Location: Unspecified
(0.0000°N, 0.0000°E)
Time: 03:52:48
(UTC+01:00)
Language:

Cosmos 1536 - Orbit

View from above orbital plane
View from above orbital plane
View from above satellite
View from above satellite

Ground track
Ground track

The orbit data is extracted from the following two-line orbital elements,

1 14699U 84013A   17051.50666031  .00000426  00000-0  27902-4 0  9992
2 14699  82.5238  82.4932 0014280  93.7438 266.5422 15.04974188795540
Epoch (UTC): 20 February 2017 12:09:35
Eccentricity: 0.0014280
inclination: 82.5238°
perigee height: 541 km
apogee height: 561 km
right ascension of ascending node: 82.4932°
argument of perigee: 93.7438°
revolutions per day: 15.04974188
mean anomaly at epoch: 266.5422°
orbit number at epoch: 79554

The dashed part of the orbit path shows where the satellite is in the earth's shadow,  

DLR